Chillicothe, MO

9:48 AM CDT on June 25, 2017 (GMT -0500)
Chillicothe

Weather History for KCDJ - November, 2012

Change the Weather History Date:

Friday, November 9, 2012

  Actual Average (KIRK) Record (KIRK)
Temperature  
Mean Temperature 60 °F -  
Max Temperature 73 °F 52 °F 75 °F (1949)
Min Temperature 48 °F 34 °F 3 °F (1925)
Degree Days  
Heating Degree Days 4    
Growing Degree Days 10 (Base 50)    
Moisture  
Dew Point 49 °F    
Average Humidity 65    
Maximum Humidity 75    
Minimum Humidity 55    
Precipitation  
Precipitation 0.00 in - - ()
Sea Level Pressure  
Sea Level Pressure 29.87 in    
Wind  
Wind Speed 7 mph (SSE)    
Max Wind Speed 13 mph    
Max Gust Speed 21 mph    
Averages and records for this station are not official NWS values.
T = Trace of Precipitation, MM = Missing Value Source: NWS Daily Summary

Daily Weather History Graph

Daily Weather History Graph

Search for Another Location

Airport or City:

Trip Planner

Search our weather history database for the weather conditions in past years. The results will help you decide how hot, cold, wet, or windy it might be!

Date:

Astronomy

Nov. 09, 2012 Rise Set
Actual Time 6:52 AM CST 5:03 PM CST
Civil Twilight 6:24 AM CST 5:31 PM CST
Nautical Twilight 5:51 AM CST 6:04 PM CST
Astronomical Twilight 5:20 AM CST 6:35 PM CST
Moon 1:52 AM CST (11/9) 2:16 PM CST (11/9)
Length of Visible Light 11h 07m
Length of Day
10h 10m
Waning Crescent, 23% of the Moon is Illuminated
Nov 9
Waning Crescent
Nov 13
New
Nov 20
First Quarter
Nov 28
Full
Dec 6
Last Quarter

Hourly Weather History & Observations

Time (CST) Temp. Dew Point Humidity Pressure Visibility Wind Dir Wind Speed Gust Speed Precip Events Conditions
12:52 AM 51.1 °F 37.9 °F 61% 29.95 in - SE 5.8 mph - N/A   Unknown
1:52 AM 51.1 °F 39.0 °F 63% 29.94 in - SSE 8.1 mph - N/A   Unknown
2:52 AM 50.0 °F 39.0 °F 66% 29.94 in - SSE 5.8 mph - N/A   Unknown
3:52 AM 50.0 °F 39.0 °F 66% 29.93 in - SE 5.8 mph - N/A   Unknown
4:52 AM 48.9 °F 39.0 °F 69% 29.94 in - SE 5.8 mph - N/A   Unknown
5:52 AM 48.9 °F 39.9 °F 71% 29.93 in - SSE 6.9 mph - N/A   Unknown
6:52 AM 48.9 °F 39.9 °F 71% 29.92 in - SE 6.9 mph - N/A   Unknown
7:52 AM 51.1 °F 41.0 °F 68% 29.93 in - SE 8.1 mph - N/A   Unknown
8:52 AM 55.0 °F 44.1 °F 67% 29.93 in - South 6.9 mph - N/A   Unknown
9:52 AM 60.1 °F 46.9 °F 62% 29.91 in - South 10.4 mph - N/A   Unknown
10:52 AM 63.0 °F 50.0 °F 63% 29.90 in - SSW 12.7 mph 20.7 mph N/A   Unknown
11:52 AM 68.0 °F 52.0 °F 56% 29.86 in - SSW 11.5 mph - N/A   Unknown
12:52 PM 70.0 °F 53.1 °F 55% 29.83 in - South 9.2 mph 16.1 mph N/A   Unknown
1:52 PM 69.1 °F 54.0 °F 58% 29.82 in - South 8.1 mph - N/A   Unknown
2:52 PM 73.0 °F 55.9 °F 55% 29.79 in - South 8.1 mph 18.4 mph N/A   Unknown
3:52 PM 73.0 °F 57.0 °F 57% 29.78 in - South 10.4 mph - N/A   Unknown
4:52 PM 70.0 °F 57.0 °F 63% 29.78 in - SSE 8.1 mph - N/A   Unknown
5:52 PM 68.0 °F 55.9 °F 65% 29.79 in - SSE 5.8 mph - N/A   Unknown
6:52 PM 64.9 °F 55.9 °F 73% 29.80 in - SSE 4.6 mph - N/A   Unknown
7:52 PM 63.0 °F 55.0 °F 75% 29.82 in - SSE 4.6 mph - N/A   Unknown
8:52 PM 66.0 °F 55.9 °F 70% 29.82 in - SSE 4.6 mph - N/A   Unknown
9:52 PM 69.1 °F 55.9 °F 63% 29.82 in - South 10.4 mph - N/A   Unknown
10:52 PM 66.9 °F 55.9 °F 68% 29.82 in - South 8.1 mph - N/A   Unknown
11:52 PM 66.0 °F 55.0 °F 68% 29.81 in - South 10.4 mph 19.6 mph N/A   Unknown